Tracking 23610 objects as of 19-Sep-2021
HD Live streaming from Space Station
objects crossing your sky now

SL-16 R/B

Track SL-16 R/B now!
10-day predictions
SL-16 R/B is classified as:


NORAD ID: 25861
Int'l Code: 1999-039B
Perigee: 628.9 km
Apogee: 652.4 km
Inclination: 98.2 °
Period: 97.4 minutes
Semi major axis: 7011 km
RCS: 13.5291 m2 (large)
Launch date: July 17, 1999
Source: Commonwealth of Independent States (former USSR) (CIS)
Launch site: TYURATAM MISSILE AND SPACE COMPLEX (TTMTR)

Note: This is a ROCKET BODY
aabbcc
Your satellite tracking list
Your tracking list is empty




NASA's NSSDC Master Catalog

Two Line Element Set (TLE):
1 25861U 99039B   21262.42994236  .00000042  00000-0  13292-4 0  9991
2 25861  98.2028 279.6120 0016774 121.3768  15.0354 14.78662939195449
Source of the keplerian elements: AFSPC